CAPE
299 1142 2094 2218 2208 2390 2759 2831 2832 2643 2597 2367 2369 2337 2425 2516 2323 2311 2395 2310 2153 2213 2024 1306 1049 1052 1413 1434 1582 1605 1555 1647 1414 1447 1453 809 762 1428 1548 1407 646 183 929
583 1337 2582 2699 2665 2692 2896 3002 2787 2752 2764 2472 2370 2357 2322 2529 2221 2205 2544 2375 1946 2206 1668 1370 1410 1516 1305 1230 1368 1470 1709 1838 2032 1679 1267 797 1450 1477 1166 1216 560 1195 1045
977 1373 1967 2602 2637 2576 2933 2876 2993 2879 2911 2642 2744 2498 2424 2345 2131 2180 1912 2082 1607 1632 1618 1373 1410 1652 1311 904 1199 1422 1591 1905 1878 830 341 4 154 721 630 653 522 325 524
990 1533 1396 2486 2511 2784 3129 3024 2972 3091 2992 2875 2884 2857 2784 2507 2378 2135 1512 1431 1613 1464 1349 1289 1319 1424 1354 1163 1309 1640 1480 1566 1615 1334 465 0 221 616 440 317 193 1269 1335
971 1362 1494 2724 2669 2282 2976 3022 3120 3022 2917 2947 2946 2613 2543 2697 2597 2005 1660 1595 1626 1381 1283 1176 1248 1388 1357 1228 1287 1628 1402 1401 1308 784 856 694 187 1396 1069 312 1163 1347 675
671 1054 2283 2757 2455 2247 2562 2943 3031 3113 3219 3055 3013 2779 2700 2456 2403 2448 1974 1738 1551 1333 1334 1196 1019 1258 1235 1346 1182 1586 1221 1119 755 603 830 1134 661 971 1480 1280 1344 1406 1010
770 923 1987 2776 2633 2596 2718 2969 2938 3175 3237 3244 3144 2972 2670 2714 2653 2641 2394 1695 1653 1425 1825 1594 1407 1169 947 1245 989 1143 1496 714 139 201 913 691 1077 1158 612 1179 1220 1007 1134
781 828 1570 2747 2810 2757 2643 2543 2908 2668 2491 2802 3034 2775 2344 2287 2303 2429 2672 2090 1712 1872 1965 1605 1201 1267 1157 1236 1364 1276 1642 1156 813 466 363 398 904 1491 1322 505 179 472 1055
883 992 1363 2049 2218 2374 2748 2813 2831 2870 2695 2770 2774 3237 2806 2556 2220 2082 2287 2365 2104 2011 1920 1794 1486 1440 1292 1117 1057 1025 974 849 738 688 386 531 1127 1101 1038 1526 533 74 315
1074 1400 1473 1838 1924 1945 2074 3085 2992 3049 2790 2589 2574 2449 2615 2353 2392 2121 2359 2291 2031 1829 1739 1875 1409 1504 1470 1468 1204 917 1053 1156 509 828 666 521 1200 1440 1788 1063 767 548 331
1181 1591 1799 1779 2149 2250 2077 2186 2865 2502 2460 2529 2654 2697 2593 2141 2002 1861 2113 2099 1993 1918 1832 1559 1411 1686 1434 1183 1038 599 1137 969 643 701 745 1017 1075 1332 1434 1187 656 349 285
1138 1460 1762 1798 1715 2197 1836 2308 2197 2308 2302 2314 2326 2536 2722 2385 1996 1989 1457 2060 2075 1742 1400 1908 2143 1528 1378 610 515 593 951 740 830 868 781 1322 1300 1081 927 872 619 332 839
1084 1361 1290 1968 1974 2100 1919 2121 2180 2058 2481 2429 2614 3285 2876 2410 2919 2720 2180 652 1372 1753 662 1468 1752 932 666 476 539 627 742 621 603 924 801 1249 1526 1206 1032 1280 1064 1245 751
1163 1186 1277 1409 2034 2143 2284 1988 1822 1655 2228 2298 2406 2677 2443 2185 1842 2134 2066 1447 1365 2239 1980 1333 1239 1283 744 553 406 654 502 324 400 651 677 997 1913 1563 1149 1757 1910 1614 1229
1283 1166 1200 1562 2076 2276 2078 1718 1864 1633 2006 2042 2116 2375 2355 1953 1991 2018 1787 1985 813 1562 1730 1915 1678 1324 876 514 510 702 383 598 664 761 873 1066 1909 2147 1806 1502 1898 1479 1277
1358 1229 1242 1051 1618 2000 2018 2074 1944 1635 1762 2056 1849 2002 2336 1911 1933 2040 1933 1665 1810 878 1257 1811 1658 1232 985 660 705 806 831 1074 998 1045 1091 952 1593 2458 2226 2319 2576 2088 1404
1309 1277 1283 1097 1105 1106 1633 1756 1828 1472 1407 1364 1748 2143 2162 2121 2071 1839 1679 1305 1663 1644 1982 1765 2047 1658 950 818 725 643 870 943 953 1060 1204 1126 1482 2413 2375 2466 2703 2566 2231
1332 1318 1352 1056 1055 1084 1117 1544 1241 1384 1440 1500 1590 1711 2169 2142 2003 1925 1425 1158 1287 1860 1677 980 1130 1184 981 676 632 555 658 788 934 1054 1088 1203 1274 1356 1870 2146 2205 2153 2224
1401 1443 1465 1395 1310 1321 1391 1334 1179 1304 1344 1292 1360 1327 1964 2011 1750 1629 1454 1638 1778 1556 1411 1210 900 655 1044 1047 700 652 706 904 1079 777 948 1197 1272 990 908 1071 1804 1908 1969
1583 1427 1491 1556 1669 1620 1585 1528 1077 1044 1318 1367 1462 1591 1532 1626 1674 1604 1617 1843 2028 1957 1807 1581 1162 725 257 711 528 318 704 1028 1215 1229 1180 921 964 1150 1058 1418 1453 1303 1959
1820 1649 1526 1695 1919 1690 1342 1227 1104 834 1051 1277 1402 1618 1875 1556 1374 1537 1335 1737 1740 1757 1845 1905 1642 1506 523 769 938 861 1153 1463 1322 1187 1272 996 823 872 1017 1292 1522 1152 991
1881 2003 2035 1830 1824 1710 1385 1357 996 1064 655 769 933 1105 1276 1320 1423 1428 1413 1488 1626 1522 1867 1943 1959 1702 1440 1486 939 1099 737 756 1083 1055 1103 1199 1149 1074 981 1055 1252 1471 1452
1892 1925 1949 2033 2108 1945 1760 1529 1172 997 863 762 766 957 1091 1282 1523 1769 1828 1734 1723 1656 1437 1726 1816 1848 2313 1735 1414 2082 1226 733 820 825 1212 1139 1155 1107 1108 1134 1465 1632 1907
1896 1875 1891 1877 1953 1708 1977 1697 1666 1195 937 838 793 750 995 1280 1432 1637 1845 1797 1782 1686 1916 1598 1584 1471 2101 1610 1259 1043 1210 958 1171 532 730 978 1271 1402 1399 1307 1166 1376 1727
1654 1902 1868 1830 1925 1919 1900 1842 1733 1654 1307 1032 971 1668 1889 1663 1613 1647 1776 1775 1771 1770 1638 1648 1563 1542 1320 1270 1965 2006 1942 1695 1446 1210 853 612 693 919 1156 1465 1123 1180 1350
1696 1828 1930 2025 1976 2044 1914 1989 2086 1958 1675 1370 1624 1562 1495 1537 1590 1900 1923 2006 1866 1791 1730 1739 1671 1704 1911 1559 1819 2302 1977 1017 1344 1410 1188 965 717 772 743 607 522 674 998
CIN
-49 0 0 0 0 0 0 0 0 0 0 0 0 0 0 0 0 0 0 0 0 0 0 0 -3 -3 -4 -1 0 0 0 0 0 0 0 0 0 0 0 0 0 -3 0
-65 -2 0 0 0 0 0 0 0 0 0 0 0 0 0 0 0 0 0 0 0 0 0 0 0 0 -1 0 0 0 0 0 0 0 0 0 0 0 0 0 0 0 0
-42 -10 0 0 0 0 0 0 0 0 0 0 0 0 0 0 0 0 0 0 0 0 0 -4 0 0 -3 0 0 0 0 0 0 -13 -48 -26 -25 -2 -5 -4 -6 -10 -2
-64 -16 -9 0 0 0 0 0 0 0 0 0 0 0 0 0 0 0 0 -1 0 0 0 0 -6 0 0 0 0 0 0 0 0 0 -22 0 -56 -8 -18 -31 -39 0 0
-83 -36 -20 0 0 0 0 0 0 0 0 0 0 0 0 0 0 0 0 0 0 0 -1 0 0 0 0 0 0 0 0 0 -2 -6 0 -1 -22 0 0 -34 0 0 0
-125 -69 -3 0 0 0 0 0 0 0 0 0 0 0 0 0 0 0 0 0 0 0 0 0 -1 0 0 0 0 0 0 0 -9 -6 0 0 0 -1 0 0 0 0 0
-125 -79 -11 0 0 0 0 0 0 0 0 0 0 0 0 0 0 0 0 0 0 0 0 0 0 0 0 0 0 0 0 -10 -59 -54 -1 -1 0 0 -7 0 0 0 0
-113 -86 -22 0 0 0 0 0 0 0 0 0 0 0 0 0 0 0 0 0 0 0 0 0 0 0 0 0 0 0 0 0 -2 -16 -41 -34 -8 -1 0 -11 -49 -21 0
-65 -53 -24 0 0 0 0 0 0 0 0 0 0 0 0 0 0 0 -1 -1 0 0 -2 -1 0 0 0 0 0 -2 -7 -16 -3 -2 -29 -15 -7 -1 0 0 -12 -71 -31
-43 -14 -11 0 0 0 0 0 0 0 0 0 0 0 0 0 0 0 0 0 0 0 -2 0 0 0 0 0 -2 -12 -10 -20 -13 -3 -4 -15 -7 -3 0 -1 0 -7 -31
-40 -5 0 0 0 0 0 0 0 0 0 0 0 0 0 0 0 0 0 0 0 0 0 0 0 0 0 -1 -10 -24 -8 -1 -9 -5 0 -35 -18 -4 0 0 -8 -25 -35
-121 -11 0 0 -2 0 0 0 0 0 0 0 0 0 0 0 0 0 -1 0 0 -1 0 0 0 0 0 0 -9 -19 0 -9 -13 -9 -8 -38 -23 -12 -7 -5 -14 -41 -4
-180 -56 -34 0 0 0 0 0 0 0 0 0 0 0 0 0 0 0 0 -5 0 0 -1 0 0 0 -1 -4 -1 -7 -7 -13 -10 -12 -13 -44 -21 -19 -12 0 -2 0 -5
-227 -141 -76 -32 0 0 0 0 -1 -3 0 0 0 0 0 0 0 0 0 0 0 0 0 0 0 0 -1 -11 -14 -12 -23 -27 -17 -12 -18 -58 -12 -20 -24 -1 0 0 0
-258 -194 -122 -42 -3 0 0 -2 -1 -3 0 0 0 0 0 0 0 0 0 0 0 0 0 0 0 0 0 -12 -17 -14 -21 -17 -16 -16 -19 -64 -32 -18 -19 -15 0 0 0
-268 -211 -143 -129 -37 -2 -2 -2 0 -7 -2 0 0 0 0 0 0 0 0 0 0 -1 0 0 0 0 0 -3 -10 -11 -12 -10 -12 -19 -11 -31 -76 -21 -22 -8 0 0 -2
-312 -238 -182 -168 -92 -60 -25 -17 -7 -19 -16 -4 0 0 0 0 0 0 0 0 0 0 0 0 0 0 0 -3 -15 -14 -11 -15 -13 -22 -22 -22 -19 -22 -16 -13 -2 0 0
-313 -275 -199 -224 -156 -77 -63 -32 -53 -30 -18 -5 -1 0 0 0 0 0 0 0 0 0 0 0 0 0 0 -2 -8 -13 -12 -18 -20 -24 -22 -26 -16 -7 -26 -30 -24 -20 -14
-345 -302 -236 -191 -152 -75 -37 -25 -33 -31 -24 -13 -4 -11 0 0 0 0 0 0 0 0 0 0 0 -4 0 0 -5 -9 -17 -11 -12 -10 -18 -20 -26 -24 -11 -34 -50 -37 -31
-313 -317 -263 -178 -87 -57 -45 -19 -14 -7 -1 -1 0 0 -1 0 0 -1 -1 0 0 0 0 0 0 -9 -35 -4 -8 -6 -9 -7 -8 -10 -11 -9 -12 -16 -14 -13 -9 -13 -31
-263 -257 -231 -189 -102 -70 -85 -76 -46 -50 -12 -2 -1 0 0 0 0 0 -10 0 0 0 0 0 0 0 -26 -11 0 0 -1 -4 -4 -5 -8 -8 -10 -16 -15 -14 -13 -5 -5
-258 -220 -186 -188 -150 -135 -135 -80 -104 -50 -69 -42 -19 -10 -11 -2 0 0 0 -4 -1 0 0 0 0 0 0 0 0 0 0 0 0 -2 -6 -6 -6 -7 -6 -18 -19 -21 -15
-249 -222 -187 -145 -140 -136 -124 -97 -97 -78 -71 -55 -24 -14 -18 -11 0 0 0 0 0 0 0 0 0 0 0 -1 -1 -1 -1 0 -1 0 -15 -12 -17 -8 -7 -6 -13 -21 -19
-207 -149 -140 -138 -112 -151 -87 -110 -82 -128 -154 -134 -89 -61 -25 -10 -10 0 0 0 0 0 0 -3 -2 -4 0 0 -14 -16 -15 -10 -3 0 -12 -21 -25 -29 -28 -21 -17 -20 -11
-153 -92 -82 -80 -76 -102 -91 -71 -83 -90 -104 -100 -66 -12 -5 -6 -2 0 0 0 -1 0 -1 -5 -3 -4 -6 -6 -4 -1 -1 -8 0 -1 0 -1 -1 -11 -13 -14 -13 -8 -15
-107 -61 -17 -12 -20 -26 -62 -50 -44 -28 -36 -56 -28 -12 -11 -9 -7 0 0 0 -4 -4 -7 -8 -10 -9 -9 -2 -5 -1 0 0 0 0 0 0 0 -16 -8 -20 -25 -20 -28
Wind_Speed
14 15 15 16 15 16 18 19 19 20 20 19 19 19 19 20 19 19 16 16 15 14 13 14 13 11 12 14 14 15 16 14 15 16 16 15 13 13 15 14 14 14 12
20 18 16 17 16 17 17 19 19 20 19 20 18 18 18 18 19 18 16 16 14 13 14 13 14 12 12 11 13 15 14 14 14 16 16 13 13 15 14 13 12 12 13
21 19 18 17 17 18 17 18 19 19 19 19 18 17 18 17 16 17 16 15 15 13 13 13 12 12 11 10 12 13 13 12 13 15 11 9 11 12 12 12 12 11 12
20 19 19 18 17 17 17 18 18 19 19 18 17 17 17 16 16 14 16 15 14 13 12 12 12 12 11 11 12 14 13 12 13 13 8 9 11 12 11 12 12 10 11
20 19 18 20 19 19 18 18 17 18 18 18 17 17 17 17 16 15 14 14 14 13 13 12 11 11 11 12 12 12 11 11 11 9 9 8 7 10 11 11 12 11 8
20 20 21 21 20 19 18 18 17 17 17 17 17 16 16 15 15 15 14 13 13 12 12 12 11 11 10 12 11 12 10 10 9 8 7 8 6 10 10 9 9 11 10
19 18 21 21 20 19 19 18 17 16 16 16 17 16 16 15 15 14 14 14 12 12 11 12 12 12 11 12 12 11 10 10 6 6 6 6 7 8 9 8 9 9 8
19 18 19 21 20 19 19 18 18 17 17 17 17 16 16 15 14 14 14 14 13 11 11 12 13 13 12 13 12 10 9 6 5 5 6 5 6 6 9 8 7 7 7
17 17 17 18 19 21 19 18 17 18 17 16 15 15 15 15 15 14 13 13 12 11 11 13 14 13 12 12 10 8 4 1 4 4 5 5 7 7 8 7 7 6 6
16 16 17 16 17 16 16 18 17 17 17 18 17 16 14 14 14 14 13 12 13 12 10 12 12 12 11 10 9 6 4 4 4 6 4 4 7 7 8 8 6 6 6
15 16 16 16 15 15 14 15 16 18 17 16 16 16 13 9 11 12 9 12 13 13 12 12 12 12 10 9 8 6 4 1 3 4 3 9 8 7 6 6 6 6 7
20 19 16 17 16 15 12 13 14 13 11 11 10 12 8 9 8 9 10 11 11 11 12 11 11 13 10 6 6 6 3 3 3 4 4 10 11 10 8 8 8 8 7
20 15 17 15 15 16 12 10 8 8 8 8 11 8 9 7 5 5 4 6 7 11 8 9 9 8 8 6 5 4 3 4 3 3 3 9 12 12 11 10 10 10 10
21 20 19 18 14 15 10 10 10 9 9 8 9 10 8 6 7 6 6 6 6 6 6 7 6 6 8 8 7 5 6 4 4 3 3 10 12 14 13 12 13 12 11
21 20 19 17 15 13 13 10 10 10 10 11 10 10 9 9 8 8 7 7 6 6 5 6 6 6 6 7 6 6 6 5 6 4 4 9 13 15 15 14 13 13 13
20 20 19 16 15 15 13 13 10 10 10 10 10 10 12 9 8 8 8 8 7 6 6 6 6 6 6 7 7 7 6 6 6 6 4 4 12 15 16 16 14 14 14
19 20 20 16 13 16 15 14 11 10 10 10 10 12 12 11 10 9 7 7 7 6 6 5 5 5 6 6 7 7 6 6 6 6 4 4 6 13 15 15 15 14 15
17 20 20 16 14 15 14 12 9 10 10 10 10 10 13 13 12 11 8 8 7 7 6 6 6 6 6 6 6 6 6 6 7 7 5 5 5 6 12 14 14 14 16
19 20 20 20 20 17 15 11 11 12 10 10 10 10 13 13 13 10 9 8 9 7 7 6 6 6 6 6 7 7 6 6 7 7 7 7 7 7 7 9 14 14 16
19 19 19 17 18 18 13 10 9 8 9 9 10 10 12 11 13 12 9 8 9 7 7 7 7 7 6 7 7 7 7 7 7 7 7 8 8 9 10 10 8 9 16
19 18 18 19 18 14 13 12 11 11 10 10 10 13 12 11 13 12 10 10 9 9 10 10 8 10 8 6 6 8 8 10 10 9 7 8 10 10 10 10 8 8 8
20 21 20 19 19 17 13 12 10 11 11 11 10 11 13 13 13 12 12 11 11 9 11 11 11 8 8 7 6 5 7 8 9 10 9 9 12 10 11 12 11 11 10
20 19 19 19 19 18 17 12 10 9 9 10 11 11 13 15 14 14 14 11 11 10 10 11 12 13 8 7 10 4 3 5 4 5 9 10 12 10 10 11 11 11 12
16 16 18 20 19 18 18 16 19 14 14 13 13 12 12 15 16 15 15 13 12 10 11 11 11 12 10 10 5 8 7 3 4 5 3 4 5 7 9 8 10 11 11
10 14 16 18 18 18 19 16 15 16 13 11 11 14 14 14 15 15 15 14 13 10 12 13 12 13 10 10 7 4 9 7 8 7 10 8 7 6 5 5 5 6 7
2 9 12 15 17 18 19 19 18 16 13 12 13 12 12 12 12 16 15 14 14 12 13 12 14 14 11 10 8 8 9 8 8 8 9 11 10 9 8 9 9 8 8
Wind_Direction
158 150 143 135 130 120 121 125 126 132 133 135 138 141 138 136 135 131 127 123 126 126 124 123 120 119 106 106 111 108 114 116 116 114 111 107 111 109 103 108 126 104 94
150 149 148 135 133 126 122 124 127 131 135 136 140 142 142 138 139 136 133 126 127 125 128 124 121 121 116 112 115 119 121 123 119 114 107 105 97 97 103 96 83 91 109
150 148 150 141 137 133 128 126 128 133 137 140 140 144 143 141 143 140 138 130 130 129 132 128 125 124 126 126 123 124 126 121 116 110 114 108 109 108 106 107 105 107 105
150 151 151 145 142 140 135 131 132 136 140 143 143 147 146 148 148 145 144 141 133 138 134 131 133 129 131 130 128 124 125 127 115 122 118 114 115 115 114 113 115 106 105
154 154 149 149 147 147 140 138 141 141 144 149 148 149 151 153 153 156 154 150 144 140 139 138 140 137 137 134 135 128 129 123 114 135 117 113 116 111 123 125 126 122 104
157 157 150 152 153 153 148 146 146 146 147 150 152 156 155 158 161 162 162 160 152 148 149 150 149 140 143 143 141 137 136 129 140 127 133 113 115 119 120 128 115 115 119
159 160 157 157 159 156 156 155 153 153 154 155 157 159 162 167 171 169 169 164 166 157 154 147 145 146 150 145 143 144 150 135 128 132 125 122 122 138 136 130 127 126 132
160 165 161 159 161 160 161 160 159 159 161 163 163 160 163 170 175 172 171 168 173 169 157 153 141 145 148 150 145 148 152 177 174 127 132 143 104 152 146 143 145 142 133
166 168 168 166 166 164 165 166 165 164 171 170 172 165 166 164 172 175 169 167 170 168 161 152 149 150 149 152 153 160 156 149 221 170 157 158 153 178 168 154 149 152 155
171 172 173 172 172 171 170 171 172 175 175 174 175 172 172 172 170 180 172 171 170 167 169 157 153 154 158 160 158 161 162 145 157 155 177 141 175 218 181 160 172 176 191
175 177 177 175 174 173 175 177 177 181 181 183 179 175 175 178 175 170 167 172 178 172 176 164 163 156 163 169 172 181 192 135 158 172 181 141 188 208 183 178 190 200 205
177 182 181 181 179 178 180 179 182 184 189 186 186 180 176 178 185 178 171 181 174 177 177 171 168 161 179 180 183 191 214 199 209 196 212 173 190 202 210 199 200 204 224
179 180 183 183 183 183 183 183 182 186 185 188 184 177 174 180 182 169 168 182 193 190 174 182 170 180 183 198 197 198 202 229 234 220 190 193 201 205 214 209 211 212 216
183 185 181 183 182 187 184 187 184 189 185 186 182 177 176 187 178 183 183 189 204 181 189 178 180 177 189 205 211 211 217 243 243 244 231 208 210 211 213 217 220 218 221
184 186 187 182 180 184 187 186 190 194 189 188 185 182 183 188 192 190 190 191 192 191 184 170 181 180 193 209 218 230 232 240 257 264 265 217 216 211 213 217 218 225 231
185 187 184 190 187 185 190 184 189 192 191 194 189 185 185 186 191 192 190 199 191 200 192 203 187 192 201 212 217 231 237 248 257 272 266 246 215 213 212 217 219 222 231
186 186 188 184 189 195 195 191 190 193 195 201 199 187 184 187 191 200 199 202 200 190 198 198 201 202 210 212 228 230 240 248 257 264 272 264 199 216 223 219 219 221 227
187 187 189 184 185 193 195 192 194 195 197 202 203 201 197 195 194 193 195 200 199 200 201 203 210 212 220 223 230 232 239 249 261 267 259 260 237 229 211 229 226 225 231
191 186 188 190 189 190 195 198 199 200 201 206 207 204 201 202 196 200 202 197 192 197 201 205 204 223 219 229 238 238 244 249 255 253 258 247 238 238 238 212 229 233 239
197 193 187 187 190 191 185 192 203 211 213 205 211 216 205 208 203 202 204 203 199 204 209 210 217 205 224 231 241 240 246 245 253 245 251 245 245 243 244 248 243 238 234
202 194 193 187 186 183 188 187 195 203 207 213 214 213 214 216 211 209 210 203 201 204 210 205 211 213 210 217 237 239 249 244 247 242 240 245 243 240 246 250 251 250 247
201 197 192 191 185 187 187 198 196 199 209 215 215 215 211 211 211 215 218 210 207 206 205 206 210 215 224 205 228 245 254 235 232 240 240 244 245 247 243 238 246 245 251
211 197 196 193 189 191 189 182 192 190 203 204 213 216 211 211 214 217 217 222 213 217 211 209 209 216 221 195 215 226 208 239 272 219 231 245 254 253 254 254 252 251 250
209 202 198 192 194 195 190 187 190 197 200 203 203 206 211 214 209 211 216 217 219 216 221 218 216 223 226 226 194 227 240 252 233 264 211 239 243 247 249 252 254 256 257
209 205 201 198 197 193 192 199 197 202 202 196 202 198 204 202 213 211 213 212 216 221 225 224 218 220 219 231 219 206 227 221 242 258 272 264 257 252 248 239 259 256 253
324 210 208 205 205 200 198 199 201 209 210 204 197 200 203 203 204 211 213 215 218 217 222 221 220 226 221 231 227 219 228 230 231 237 255 265 265 280 280 268 267 262 247